Location: Unspecified
(52.0178°N, 0.0000°E)
Time: 09:02:26
(UTC+00:00)

O/OREOS (USA 219) - Pass Details

Date: 28 July 2019
Orbit: 621 x 646 km, 72.0° (Epoch: 22 May)

Event Time Altitude Azimuth Distance (km) Brightness Sun altitude
Exits shadow 02:42:46 12° 187° (S) 1,923 ? -11.2°
Maximum altitude 02:46:55 52° 112° (ESE) 795 ? -10.8°
Drops below altitude 10° 02:51:20 10° 37° (NE) 2,027 ? -10.4°
Sets 02:53:38 0° 32° (NNE) 2,936 ? -10.2°
